STARLINK-31606, 59571

Orbit data source: Space-Track

STARLINK-31606, 59571 is a payload satellite owned by SpaceX/Seattle (US) in LEO that was launched on Tue, 23 Apr 2024 UTC via an FALCON 9 launch vehicle from the Air Force Eastern Test Range (AFETR). Payload-class satellites include a variety of spacecraft equipped with specific instruments for various scientific and technological missions. These include communications satellites like Starlink; space stations such as the ISS; scientific satellites like the Hubble; Earth observation satellites from companies like Planet Labs, Umbra, and HawkEye 360; GPS; miniature CubeSats for education and research; and military/defense satellites.

Loading next visibility...
Identifier
59571, 2024-076H
Orbit
LEO
Country
Flag of USUS
Related business
Manufacturer
SpaceX/Seattle
Mission
Operational Commercial Communications
Bus & Motor
STARLINK V2M, Unknown motor
Mass
730 kg wet, ~700 kg dry
Launch date (UTC)
2024-04-23 (2 years ago)
Launch vehicle
FALCON 9
Launch site
Air Force Eastern Test Range (AFETR)
Object type
Payload
Rocket body
Debris
Shape & HBR
Box + 2 Pan, 17.7 m
Radar Cross Section
33.884 m², Large (>1 m²)

Expand to show TLE details & history
Last TLE update: 15 hours ago

TLE from 15 hours ago
0 STARLINK-31606
1 59571U 24076H   25349.91668981  .00035916  00000-0  13084-2 0  9999
2 59571  43.0011 121.6945 0001808 276.3056 149.1314 15.27578741  5917
Epoch: 2025-12-15T22:00Z
TLE epoch observation values (Epoch: 2025-12-15T22:00:01.999Z)
Latitude
38.4865°
Longitude
124.85597°
Altitude
486.268 km
Speed
7.627 km/s
True Right ascension
11h 58m 41s
True Declination
38° 18' 45"
Sunlit
Object was in daylight at epoch
Visualization orbit readout
Latitude
Unknown
Longitude
Unknown
Altitude
Unknown
Speed
Unknown
Apparent Right ascension
Unknown
Apparent Declination
Unknown
Sunlit
N/A
Visualization observer readout
Local Sidereal Time
11:37:55
Azimuth
Unknown
Elevation
Unknown
Doppler factor
Unknown
Orbital elements
Apogee altitude
486.239 km
Perigee altitude
483.757 km
Semi-major axis
6,863.135 km
Eccentricity
0.00018
Inclination
43.0011°
RAAN
121.6945°
Arg. of periapsis
276.3056°
True anomaly
149.14203°
Mean anomaly
149.1314°
Eccentric anomaly
149.13671°
Mean motion
3.81733 °/min
Orbital period
94.31 mins
BSTAR
0.0013084
Loading maneuver chart data...
Computing Atmospheric mass density...
Loading historical data...
Loading historical data...
Loading historical data...
Loading historical data...
Loading historical data...
Loading historical data...
Loading historical data...

Documentation

Showing up to 5 results
|